Date String (YYYY-MM-DD hh:mm:ss) UTC,Instrument flags,absolute air pressure of the measurement (hPa),sample flow rate (lpm),inlet stack bypass flow (lpm),air temperature of the measurement (°C),ambient temperature measured by the external sensor (°C),aerosol sample conditioner tube jacket temperature (°C),OPC LED temperature (°C),internal box temperature (°C),relative humidity of the measurement (%),span deviation,mass concentration of particles derived from Lorenz-Mie calculation of OPC scattering (μg/m³),mass concentration of particles derived from Lorenz-Mie calculation of OPC scattering (μg/m³),mass concentration of particles derived from Lorenz-Mie calculation of OPC scattering (μg/m³)
DateTimeUTC,F1_M11,P_M11,Q1_M11,Q2_M11,T1_M11,T2_M11,T3_M11,T4_M11,T5_M11,U1_M11,ZSPAN_M11,X0_M11,X2_M11,X1_M11
2023-11-14 22:00:00,SystemResetWarning,0829.9,4.99,000.00,027.5,024.9,000.0,035.8,028.6,5.3,0000.0,0004.55,0001.39,0001.03
2023-11-14 22:01:00,SystemResetWarning,0830.0,5.00,000.00,027.5,025.3,000.0,035.8,028.7,5.3,0000.0,0004.41,0001.39,0001.04
2023-11-14 22:02:00,SystemResetWarning,0830.0,5.01,000.00,027.5,025.6,000.0,035.8,028.8,5.2,0000.0,0004.61,0001.44,0001.06
2023-11-14 22:03:00,SystemResetWarning,0830.0,5.00,000.00,027.5,025.9,000.0,035.8,028.9,5.2,0000.0,0005.57,0001.45,0001.07
2023-11-14 22:04:00,SystemResetWarning,0829.9,4.99,000.00,027.5,026.1,000.0,035.8,029.0,5.0,0000.0,0006.13,0001.44,0001.06
2023-11-14 22:05:00,SystemResetWarning,0830.0,4.99,000.00,027.6,026.3,000.0,035.8,029.1,4.8,0000.0,0007.25,0001.47,0001.07
2023-11-14 22:06:00,SystemResetWarning,0829.9,5.00,000.00,027.6,026.4,000.0,035.8,029.1,4.9,0000.0,0007.23,0001.50,0001.09
2023-11-14 22:07:00,SystemResetWarning,0829.9,5.01,000.00,027.6,026.6,000.0,035.8,029.2,5.1,0000.0,0006.71,0001.52,0001.09
2023-11-14 22:08:00,SystemResetWarning,0830.0,5.01,000.00,027.7,026.7,000.0,035.8,029.2,5.0,0000.0,0006.28,0001.55,0001.11
2023-11-14 22:09:00,SystemResetWarning,0830.0,4.98,000.00,027.7,026.8,000.0,035.8,029.3,4.9,0000.0,0006.10,0001.54,0001.12
2023-11-14 22:10:00,SystemResetWarning,0830.0,4.99,000.00,027.8,026.9,000.0,035.8,029.3,4.9,0000.0,0007.36,0001.51,0001.12
2023-11-14 22:11:00,SystemResetWarning,0830.0,5.00,000.00,027.8,027.0,000.0,035.9,029.4,4.8,0000.0,0007.59,0001.49,0001.11
2023-11-14 22:12:00,SystemResetWarning,0830.0,5.00,000.00,027.8,027.0,000.0,035.9,029.4,4.8,0000.0,0007.59,0001.50,0001.11
2023-11-14 22:13:00,SystemResetWarning,0830.1,5.01,000.00,027.9,027.1,000.0,035.9,029.5,4.8,0000.0,0006.91,0001.46,0001.11
2023-11-14 22:14:00,SystemResetWarning,0830.0,5.00,000.00,027.9,027.2,000.0,036.0,029.5,4.8,0000.0,0006.10,0001.45,0001.11
2023-11-14 22:15:00,SystemResetWarning,0830.0,5.00,000.00,028.0,027.2,000.0,036.0,029.5,4.8,0000.0,0005.60,0001.45,0001.11
2023-11-14 22:16:00,SystemResetWarning,0830.0,5.00,000.00,028.0,027.3,000.0,036.0,029.6,4.8,0000.0,0005.68,0001.44,0001.10
2023-11-14 22:17:00,SystemResetWarning,0830.1,4.99,000.00,028.0,027.3,000.0,036.0,029.6,4.7,0000.0,0006.15,0001.39,0001.08
2023-11-14 22:18:00,SystemResetWarning,0830.1,4.99,000.00,028.1,026.4,000.0,036.1,029.6,4.7,0000.0,0006.02,0001.34,0001.06
2023-11-14 22:19:00,SystemResetWarning,0830.1,5.01,000.00,028.0,024.3,000.0,036.0,029.2,4.9,0000.0,0005.87,0001.26,0001.05
2023-11-14 22:20:00,SystemResetWarning,0830.1,5.01,000.00,027.8,023.5,000.0,036.0,029.0,5.0,0000.0,0005.90,0001.26,0001.04
2023-11-14 22:21:00,SystemResetWarning,0830.1,5.00,000.00,027.7,023.8,000.0,036.0,028.6,5.1,0000.0,0003.93,0001.24,0001.02
2023-11-14 22:22:00,SystemResetWarning,0830.1,4.99,000.00,027.5,024.2,000.0,035.9,028.5,5.2,0000.0,0003.68,0001.25,0001.02
2023-11-14 22:23:00,SystemResetWarning,0830.1,5.00,000.00,027.5,024.7,000.0,035.9,028.6,5.2,0000.0,0003.77,0001.28,0001.01
2023-11-14 22:24:00,SystemResetWarning,0830.1,5.01,000.00,027.5,025.1,000.0,035.8,028.7,5.2,0000.0,0003.81,0001.30,0001.00
2023-11-14 22:25:00,SystemResetWarning,0830.1,5.00,000.00,027.5,025.4,000.0,035.8,028.8,5.1,0000.0,0003.86,0001.29,0001.00
2023-11-14 22:26:00,SystemResetWarning,0830.1,4.99,000.00,027.5,025.7,000.0,035.8,028.9,5.0,0000.0,0004.14,0001.26,0001.00
2023-11-14 22:27:00,SystemResetWarning,0830.1,5.00,000.00,027.5,026.0,000.0,035.8,028.9,5.0,0000.0,0002.87,0001.25,0001.00
2023-11-14 22:28:00,SystemResetWarning,0830.1,5.00,000.00,027.5,026.2,000.0,035.8,029.0,5.0,0000.0,0002.43,0001.30,0001.01
2023-11-14 22:29:00,SystemResetWarning,0830.1,5.00,000.00,027.6,026.3,000.0,035.8,029.1,5.1,0000.0,0002.51,0001.34,0001.02
2023-11-14 22:30:00,SystemResetWarning,0830.1,5.00,000.00,027.6,026.5,000.0,035.8,029.1,5.1,0000.0,0002.56,0001.37,0001.02
2023-11-14 22:31:00,SystemResetWarning,0830.1,5.00,000.00,027.6,026.6,000.0,035.8,029.2,5.1,0000.0,0002.51,0001.39,0001.03
2023-11-14 22:32:00,SystemResetWarning,0830.1,5.00,000.00,027.7,026.7,000.0,035.8,029.2,5.0,0000.0,0002.50,0001.40,0001.05
2023-11-14 22:33:00,SystemResetWarning,0830.1,5.00,000.00,027.7,026.8,000.0,035.9,029.3,5.0,0000.0,0002.52,0001.41,0001.06
2023-11-14 22:34:00,SystemResetWarning,0830.1,4.99,000.00,027.8,026.9,000.0,035.9,029.4,5.1,0000.0,0002.44,0001.39,0001.07
2023-11-14 22:35:00,SystemResetWarning,0830.1,4.99,000.00,027.8,027.0,000.0,035.9,029.4,5.1,0000.0,0002.46,0001.39,0001.08
2023-11-14 22:36:00,SystemResetWarning,0830.1,5.00,000.00,027.8,027.0,000.0,035.9,029.4,5.1,0000.0,0002.41,0001.38,0001.08
2023-11-14 22:37:00,SystemResetWarning,0830.1,5.01,000.00,027.9,027.1,000.0,035.9,029.4,5.1,0000.0,0002.20,0001.39,0001.08
2023-11-14 22:38:00,SystemResetWarning,0830.1,5.00,000.00,027.9,027.1,000.0,036.0,029.5,5.1,0000.0,0001.99,0001.38,0001.08
2023-11-14 22:39:00,SystemResetWarning,0830.1,4.99,000.00,028.0,027.2,000.0,036.0,029.5,5.1,0000.0,0001.96,0001.35,0001.08
2023-11-14 22:40:00,SystemResetWarning,0830.1,4.99,000.00,028.0,027.2,000.0,036.0,029.5,5.2,0000.0,0001.93,0001.32,0001.07
2023-11-14 22:41:00,SystemResetWarning,0830.1,4.99,000.00,028.0,027.3,000.0,036.1,029.6,5.2,0000.0,0001.97,0001.32,0001.08
2023-11-14 22:42:00,SystemResetWarning,0830.1,5.00,000.00,028.1,027.2,000.0,036.1,029.6,5.3,0000.0,0001.95,0001.30,0001.09
2023-11-14 22:43:00,SystemResetWarning,0830.1,5.00,000.00,028.0,025.4,000.0,036.1,029.5,5.3,0000.0,0002.18,0001.32,0001.09
2023-11-14 22:44:00,SystemResetWarning,0830.1,5.00,000.00,027.9,023.6,000.0,036.0,029.1,5.3,0000.0,0002.88,0001.31,0001.10
2023-11-14 22:45:00,SystemResetWarning,0830.1,5.02,000.00,027.8,023.5,000.0,036.0,028.8,5.4,0000.0,0002.91,0001.32,0001.10
2023-11-14 22:46:00,SystemResetWarning,0830.1,5.00,000.00,027.6,023.9,000.0,035.9,028.5,5.7,0000.0,0003.02,0001.35,0001.11
2023-11-14 22:47:00,SystemResetWarning,0830.1,5.01,000.00,027.5,024.4,000.0,035.9,028.5,6.2,0000.0,0003.13,0001.38,0001.11
2023-11-14 22:48:00,SystemResetWarning,0830.2,5.01,000.00,027.5,024.8,000.0,035.8,028.6,6.3,0000.0,0003.09,0001.39,0001.12
2023-11-14 22:49:00,SystemResetWarning,0830.2,5.00,000.00,027.5,025.2,000.0,035.8,028.7,6.7,0000.0,0003.16,0001.41,0001.14
2023-11-14 22:50:00,SystemResetWarning,0830.2,5.00,000.00,027.5,025.5,000.0,035.8,028.8,6.8,0000.0,0003.18,0001.41,0001.16
2023-11-14 22:51:00,SystemResetWarning,0830.2,5.00,000.00,027.5,025.8,000.0,035.8,028.9,6.9,0000.0,0003.18,0001.42,0001.17
2023-11-14 22:52:00,SystemResetWarning,0830.3,5.00,000.00,027.5,026.0,000.0,035.8,029.0,6.8,0000.0,0003.10,0001.41,0001.17
2023-11-14 22:53:00,SystemResetWarning,0830.3,5.00,000.00,027.5,026.2,000.0,035.8,029.1,6.8,0000.0,0003.15,0001.44,0001.18
2023-11-14 22:54:00,SystemResetWarning,0830.2,5.00,000.00,027.6,026.4,000.0,035.8,029.1,6.6,0000.0,0003.22,0001.48,0001.19
2023-11-14 22:55:00,SystemResetWarning,0830.2,5.00,000.00,027.6,026.6,000.0,035.8,029.2,6.6,0000.0,0002.30,0001.53,0001.23
2023-11-14 22:56:00,SystemResetWarning,0830.2,5.00,000.00,027.7,026.7,000.0,035.8,029.2,6.4,0000.0,0002.35,0001.56,0001.25
2023-11-14 22:57:00,SystemResetWarning,0830.2,5.00,000.00,027.7,026.8,000.0,035.8,029.3,6.6,0000.0,0002.62,0001.55,0001.26
2023-11-14 22:58:00,SystemResetWarning,0830.2,5.00,000.00,027.8,026.9,000.0,035.9,029.4,6.6,0000.0,0002.73,0001.58,0001.29
2023-11-14 22:59:00,SystemResetWarning,0830.2,5.00,000.00,027.8,027.0,000.0,035.9,029.4,6.5,0000.0,0002.79,0001.63,0001.33
